Location: Bonn
(50.7330°N, 7.1000°E)
Time: 10:49:48
(UTC+02:00)

Iridium 67 - Visible Passes

Search period start: 31 August 2015 00:00
Search period end: 10 September 2015 00:00
Orbit: 776 x 779 km, 86.4° (Epoch: 30 August)

Date Brightness Start Highest point End Pass type
(mag) Time Alt. Az. Time Alt. Az. Time Alt. Az.
31 Aug 7.0 00:54:59 10° NNW 00:59:20 26° W 00:59:31 26° W visible
31 Aug 6.5 22:40:30 10° NNE 22:45:03 30° ENE 22:45:36 29° E visible
01 Sep 6.3 00:21:03 10° NNW 00:25:59 43° W 00:26:04 43° W visible
01 Sep 7.1 22:07:33 10° NNE 22:11:08 19° ENE 22:12:10 18° E visible
01 Sep 5.5 23:47:19 10° N 23:52:33 73° W 23:52:37 73° W visible
02 Sep 8.0 01:30:29 10° NW 01:32:27 12° WNW 01:33:05 11° W visible
02 Sep 7.5 21:35:28 10° NE 21:37:03 11° ENE 21:38:43 10° E visible
02 Sep 5.4 23:13:46 10° N 23:19:00 68° E 23:19:11 67° E visible
03 Sep 7.5 00:55:31 10° NNW 00:59:15 20° WNW 00:59:39 20° W visible
03 Sep 6.0 22:40:23 10° N 22:45:18 40° ENE 22:45:45 40° E visible
04 Sep 6.8 00:21:21 10° NNW 00:25:58 32° W 00:26:13 32° W visible
04 Sep 6.7 22:07:14 10° NNE 22:11:28 25° ENE 22:12:19 24° E visible
04 Sep 6.0 23:47:30 10° NNW 23:52:36 53° W 23:52:48 53° W visible
05 Sep 7.2 21:34:30 10° NNE 21:37:30 16° ENE 21:38:55 14° E visible
05 Sep 5.4 23:13:51 10° N 23:19:07 89° W 23:19:22 82° S visible
06 Sep 7.8 00:56:16 10° NW 00:59:09 15° WNW 00:59:51 14° W visible
06 Sep 5.6 22:40:22 10° N 22:45:30 55° E 22:45:58 53° ESE visible
07 Sep 7.3 00:21:46 10° NNW 00:25:55 24° W 00:26:26 24° W visible
07 Sep 6.3 22:07:04 10° NNE 22:11:45 33° ENE 22:12:33 32° E visible
07 Sep 6.5 23:47:45 10° NNW 23:52:36 39° W 23:53:02 38° W visible
08 Sep 6.9 21:34:02 10° NNE 21:37:52 21° ENE 21:39:10 19° E visible
08 Sep 5.7 23:13:59 10° N 23:19:11 66° W 23:19:38 63° WSW visible
09 Sep 8.2 00:57:53 10° WNW 00:58:59 10° WNW 00:59:48 10° W visible
09 Sep 7.4 21:01:38 10° NE 21:03:49 13° ENE 21:05:46 11° E visible
09 Sep 5.4 22:40:24 10° N 22:45:39 75° E 22:46:15 67° SE visible
